Date String (YYYY-MM-DD hh:mm:ss) UTC,Instrument flags,Ambient pressure (hPa),Sample flow (lpm),Bypass flow (lpm),Sample temperature (°C),Ambient temperature (°C),ASC tube jacket temperature (°C),LED temperature (°C),Box temperature (°C),Sample RH (%),Span deviation,Mass concentration (μg/m³),Mass concentration (μg/m³),Mass concentration (μg/m³)
DateTimeUTC,F1_M11,P_M11,Q1_M11,Q2_M11,T1_M11,T2_M11,T3_M11,T4_M11,T5_M11,U1_M11,ZSPAN_M11,X0_M11,X2_M11,X1_M11
2022-06-28 10:00:00,,0832.5,5.00,0.00,30.2,29.1,00.0,39.1,32.0,15.0,0000.0,0005.25,0003.33,0002.93
2022-06-28 10:01:00,,0832.5,5.00,0.00,30.2,29.1,00.0,39.1,32.1,15.0,0000.0,0005.57,0003.33,0002.94
2022-06-28 10:02:00,,0832.5,5.00,0.00,30.3,29.1,00.0,39.1,32.1,14.9,0000.0,0006.19,0003.34,0002.95
2022-06-28 10:03:00,,0832.5,4.99,0.00,30.3,29.1,00.0,39.1,32.1,14.9,0000.0,0006.18,0003.36,0002.95
2022-06-28 10:04:00,,0832.5,5.01,0.00,30.3,29.1,00.0,39.1,32.1,15.1,0000.0,0006.40,0003.40,0002.96
2022-06-28 10:05:00,,0832.4,5.01,0.00,30.3,29.1,00.0,39.1,32.1,15.2,0000.0,0006.48,0003.41,0002.96
2022-06-28 10:06:00,,0832.5,5.00,0.00,30.3,29.1,00.0,39.1,32.1,15.1,0000.0,0006.58,0003.42,0002.97
2022-06-28 10:07:00,,0832.5,4.98,0.00,30.3,29.2,00.0,39.1,32.1,15.1,0000.0,0006.50,0003.40,0002.96
2022-06-28 10:08:00,,0832.4,5.01,0.00,30.3,29.2,00.0,39.1,32.1,15.1,0000.0,0006.38,0003.37,0002.96
2022-06-28 10:09:00,,0832.5,4.99,0.00,30.3,29.2,00.0,39.1,32.1,15.2,0000.0,0006.28,0003.34,0002.93
2022-06-28 10:10:00,,0832.4,5.01,0.00,30.3,29.2,00.0,39.1,32.1,15.9,0000.0,0006.28,0003.32,0002.93
2022-06-28 10:11:00,,0832.4,4.99,0.00,30.3,29.2,00.0,39.1,32.1,16.2,0000.0,0006.29,0003.35,0002.96
2022-06-28 10:12:00,,0832.4,4.99,0.00,30.3,29.2,00.0,39.1,32.1,16.3,0000.0,0006.09,0003.38,0002.98
2022-06-28 10:13:00,,0832.4,5.00,0.00,30.3,29.2,00.0,39.1,32.1,16.4,0000.0,0005.60,0003.39,0003.00
2022-06-28 10:14:00,,0832.4,5.00,0.00,30.3,29.2,00.0,39.1,32.1,16.4,0000.0,0005.60,0003.38,0003.02
2022-06-28 10:15:00,,0832.4,4.99,0.00,30.3,29.2,00.0,39.1,32.1,16.3,0000.0,0005.61,0003.38,0003.03
2022-06-28 10:16:00,,0832.5,4.99,0.00,30.3,29.2,00.0,39.1,32.1,16.2,0000.0,0005.63,0003.37,0003.06
2022-06-28 10:17:00,,0832.5,5.01,0.00,30.3,29.2,00.0,39.1,32.1,16.1,0000.0,0005.49,0003.36,0003.08
2022-06-28 10:18:00,,0832.5,5.00,0.00,30.3,29.2,00.0,39.1,32.1,16.1,0000.0,0005.54,0003.36,0003.09
2022-06-28 10:19:00,,0832.5,5.00,0.00,30.3,29.2,00.0,39.1,32.1,16.2,0000.0,0005.69,0003.39,0003.10
2022-06-28 10:20:00,,0832.6,5.01,0.00,30.3,29.2,00.0,39.1,32.1,16.3,0000.0,0005.80,0003.42,0003.13
2022-06-28 10:21:00,,0832.6,5.00,0.00,30.3,29.2,00.0,39.1,32.1,16.5,0000.0,0005.80,0003.42,0003.13
2022-06-28 10:22:00,,0832.6,5.00,0.00,30.3,29.2,00.0,39.2,32.1,16.9,0000.0,0005.72,0003.41,0003.13
2022-06-28 10:23:00,,0832.5,5.00,0.00,30.3,29.2,00.0,39.2,32.1,16.8,0000.0,0005.75,0003.42,0003.13
2022-06-28 10:24:00,,0832.5,5.01,0.00,30.3,29.2,00.0,39.2,32.1,17.1,0000.0,0005.69,0003.40,0003.12
2022-06-28 10:25:00,,0832.5,4.99,0.00,30.3,29.2,00.0,39.2,32.1,16.8,0000.0,0005.75,0003.42,0003.11
2022-06-28 10:26:00,,0832.5,4.99,0.00,30.3,29.2,00.0,39.2,32.1,16.6,0000.0,0005.59,0003.42,0003.10
2022-06-28 10:27:00,,0832.5,5.01,0.00,30.3,29.2,00.0,39.2,32.1,16.7,0000.0,0005.59,0003.43,0003.09
2022-06-28 10:28:00,,0832.5,5.00,0.00,30.3,29.2,00.0,39.2,32.1,16.8,0000.0,0007.18,0003.44,0003.09
2022-06-28 10:29:00,,0832.5,5.00,0.00,30.3,29.2,00.0,39.2,32.1,16.9,0000.0,0007.26,0003.45,0003.08
2022-06-28 10:30:00,,0832.5,5.01,0.00,30.3,29.2,00.0,39.2,32.1,16.9,0000.0,0007.08,0003.43,0003.08
2022-06-28 10:31:00,,0832.5,4.99,0.00,30.3,29.2,00.0,39.2,32.1,16.9,0000.0,0007.18,0003.42,0003.07
2022-06-28 10:32:00,,0832.5,4.99,0.00,30.3,29.2,00.0,39.2,32.1,16.8,0000.0,0007.83,0003.44,0003.09
2022-06-28 10:33:00,,0832.5,5.00,0.00,30.3,29.2,00.0,39.2,32.1,16.7,0000.0,0007.86,0003.44,0003.09
2022-06-28 10:34:00,,0832.5,5.01,0.00,30.3,29.2,00.0,39.2,32.1,16.7,0000.0,0007.85,0003.44,0003.10
2022-06-28 10:35:00,,0832.4,4.99,0.00,30.4,29.2,00.0,39.2,32.2,16.6,0000.0,0007.85,0003.46,0003.11
2022-06-28 10:36:00,,0832.5,5.02,0.00,30.4,29.2,00.0,39.2,32.1,16.7,0000.0,0007.84,0003.46,0003.12
2022-06-28 10:37:00,,0832.4,5.01,0.00,30.4,29.2,00.0,39.2,32.1,16.8,0000.0,0007.80,0003.45,0003.13
2022-06-28 10:38:00,,0832.5,4.99,0.00,30.4,29.2,00.0,39.2,32.1,16.8,0000.0,0007.77,0003.44,0003.13
2022-06-28 10:39:00,,0832.5,5.00,0.00,30.4,29.2,00.0,39.2,32.1,16.7,0000.0,0007.22,0003.43,0003.13
2022-06-28 10:40:00,,0832.5,5.00,0.00,30.4,29.2,00.0,39.2,32.2,16.7,0000.0,0006.86,0003.42,0003.14
2022-06-28 10:41:00,,0832.5,5.00,0.00,30.4,29.2,00.0,39.2,32.1,16.6,0000.0,0006.90,0003.44,0003.15
2022-06-28 10:42:00,,0832.5,5.00,0.00,30.4,29.3,00.0,39.2,32.2,16.6,0000.0,0006.73,0003.45,0003.15
2022-06-28 10:43:00,,0832.5,5.00,0.00,30.4,29.3,00.0,39.2,32.2,16.5,0000.0,0006.24,0003.43,0003.15
2022-06-28 10:44:00,,0832.5,4.99,0.00,30.4,29.2,00.0,39.2,32.2,16.5,0000.0,0006.24,0003.45,0003.15
2022-06-28 10:45:00,,0832.5,5.01,0.00,30.4,29.2,00.0,39.2,32.2,16.7,0000.0,0006.17,0003.43,0003.15
2022-06-28 10:46:00,,0832.5,5.00,0.00,30.4,29.2,00.0,39.2,32.2,16.8,0000.0,0006.16,0003.42,0003.16
2022-06-28 10:47:00,,0832.5,5.01,0.00,30.4,29.2,00.0,39.2,32.2,16.8,0000.0,0006.31,0003.43,0003.15
2022-06-28 10:48:00,,0832.5,4.99,0.00,30.4,29.2,00.0,39.2,32.2,16.7,0000.0,0006.78,0003.48,0003.16
2022-06-28 10:49:00,,0832.5,5.00,0.00,30.4,29.2,00.0,39.2,32.2,16.7,0000.0,0007.30,0003.50,0003.15
2022-06-28 10:50:00,,0832.5,5.01,0.00,30.4,29.2,00.0,39.2,32.2,16.6,0000.0,0006.97,0003.51,0003.15
2022-06-28 10:51:00,,0832.5,5.00,0.00,30.4,29.2,00.0,39.2,32.2,16.6,0000.0,0007.02,0003.52,0003.15
2022-06-28 10:52:00,,0832.5,4.99,0.00,30.4,29.2,00.0,39.2,32.2,16.6,0000.0,0007.14,0003.53,0003.15
2022-06-28 10:53:00,,0832.5,5.00,0.00,30.4,29.2,00.0,39.2,32.2,16.6,0000.0,0006.96,0003.52,0003.14
2022-06-28 10:54:00,,0832.5,5.01,0.00,30.4,29.2,00.0,39.2,32.2,16.7,0000.0,0006.44,0003.51,0003.14
2022-06-28 10:55:00,,0832.5,4.99,0.00,30.4,29.2,00.0,39.2,32.2,16.8,0000.0,0006.50,0003.49,0003.13
2022-06-28 10:56:00,,0832.5,5.01,0.00,30.4,29.2,00.0,39.2,32.2,16.7,0000.0,0006.90,0003.50,0003.13
2022-06-28 10:57:00,,0832.5,5.01,0.00,30.4,29.2,00.0,39.2,32.2,16.6,0000.0,0007.03,0003.51,0003.12
2022-06-28 10:58:00,,0832.5,5.00,0.00,30.4,29.2,00.0,39.2,32.2,16.8,0000.0,0007.22,0003.50,0003.12
2022-06-28 10:59:00,,0832.5,4.99,0.00,30.4,29.2,00.0,39.2,32.2,16.8,0000.0,0006.94,0003.46,0003.12
